Date,TemperatureHighF,TemperatureAvgF,TemperatureLowF,DewpointHighF,DewpointAvgF,DewpointLowF,HumidityHigh,HumidityAvg,HumidityLow,PressureMaxIn,PressureMinIn,WindSpeedMaxMPH,WindSpeedAvgMPH,GustSpeedMaxMPH,PrecipitationSumIn
2013-3-1,47,38,32,34,28,23,95,68,48,29.72,29.55,9,2,16,0.00
2013-3-2,41,36,33,29,26,23,78,65,59,29.73,29.64,9,3,14,0.00
2013-3-3,40,33,29,29,23,18,72,67,58,29.69,29.61,11,4,13,0.00
2013-3-4,39,32,27,25,20,16,68,62,53,29.82,29.68,14,6,22,0.00
2013-3-5,48,37,29,29,23,18,66,58,46,30.05,29.82,8,1,14,0.00
2013-3-6,41,37,35,36,29,24,82,72,64,30.06,29.99,15,7,24,0.02
2013-3-7,37,34,32,33,28,23,95,77,63,30.06,30.00,18,7,25,0.02
2013-3-8,40,35,31,30,26,20,92,72,52,30.17,29.97,13,6,22,0.04
2013-3-9,62,44,30,30,22,7,74,46,14,30.33,30.17,12,2,15,0.00
2013-3-10,58,42,28,38,30,24,87,64,40,30.40,30.25,8,1,14,0.00
2013-3-11,52,44,37,42,36,29,85,74,58,30.31,30.10,10,3,15,0.00
2013-3-12,54,50,43,52,47,33,100,90,67,30.11,29.67,13,4,23,1.06
2013-3-13,56,44,33,37,28,19,92,56,32,29.83,29.74,14,3,20,0.00
2013-3-14,39,32,28,30,16,8,69,51,35,29.88,29.80,15,5,24,0.00
2013-3-15,45,34,24,30,16,2,81,50,26,29.91,29.66,15,4,23,0.00
2013-3-16,42,35,27,29,16,11,81,47,30,29.88,29.73,10,1,16,0.00
2013-3-17,44,34,25,17,11,4,59,40,22,30.31,29.88,14,4,22,0.00
2013-3-18,43,31,20,29,9,2,92,42,20,30.48,30.17,10,1,16,0.01
2013-3-19,37,33,30,34,31,27,95,91,80,30.17,29.65,8,2,15,0.37
2013-3-20,42,33,26,27,21,16,87,62,40,29.82,29.72,13,4,17,0.00
2013-3-21,44,33,25,30,18,9,91,59,30,29.83,29.59,11,0,14,0.00
2013-3-22,44,33,22,29,19,9,69,57,41,29.81,29.66,11,3,17,0.00
2013-3-23,47,37,31,27,21,16,72,53,40,29.84,29.72,18,7,29,0.00
2013-3-24,54,41,30,32,24,18,68,52,38,29.88,29.72,11,3,16,0.00
2013-3-25,49,39,32,32,24,21,68,55,41,29.77,29.49,14,3,21,0.00
2013-3-26,51,41,34,32,25,16,78,55,31,29.81,29.57,10,1,15,0.00
2013-3-27,56,42,26,32,25,21,87,56,30,29.90,29.78,11,2,18,0.00
2013-3-28,57,46,37,40,32,27,85,60,40,30.04,29.89,10,2,15,0.00
2013-3-29,61,48,35,38,30,24,85,53,34,30.07,30.00,12,2,18,0.00
2013-3-30,64,49,35,40,26,14,85,47,19,30.11,30.01,11,2,21,0.00
2013-3-31,59,45,31,47,29,19,84,58,23,30.12,29.69,13,3,21,0.03